Terug naar catalogus

PEGASUS DEB

ActiefPO
NORAD 39312·DEBRIS·🇺🇸 United States

Gelanceerd May 19, 1994 vanaf Vandenberg Space Force Base

Loading…

Volgende Passages (komende 24 uur)

TLE

VersSource: Space-Track

Epoch: Sep 11, 2026, 09:04 UTC

1 39312U 94029AEX 26254.37801407  .00002644  00000-0  31934-3 0  9990
2 39312  81.9732 294.7321 0190107 177.1577 183.0762 14.71282758701775

Volg PEGASUS DEB in realtime met AllMySat

Download on the App Store